| time (UTC) | temp F | wind direction | speed knots | gust knots | rain 1hr in | rain 24hr in | rain mn in | humidity % | barometer mb |
| 20260507031020 | 81 | 312 | 3.5 | 6.1 | 0.00 | 0.00 | 0.00 | 35 | 1017.2 |
| 20260507030516 | 81 | 337 | 3.5 | 7.0 | 0.00 | 0.00 | 0.00 | 35 | 1017.2 |
| 20260507030014 | 81 | 327 | 5.2 | 6.1 | 0.00 | 0.00 | 0.00 | 35 | 1016.9 |
| 20260507025511 | 81 | 322 | 4.3 | 7.0 | 0.00 | 0.00 | 0.00 | 35 | 1016.9 |
| 20260507025008 | 81 | 310 | 6.1 | 7.8 | 0.00 | 0.00 | 0.00 | 35 | 1016.8 |
| 20260507024506 | 81 | 340 | 2.6 | 2.6 | 0.00 | 0.00 | 0.00 | 32 | 1016.9 |
| 20260507024001 | 81 | 109 | 0.9 | 1.7 | 0.00 | 0.00 | 0.00 | 28 | 1016.9 |
| 20260507023458 | 81 | 1 | 1.7 | 2.6 | 0.00 | 0.00 | 0.00 | 24 | 1016.8 |
| 20260507022955 | 80 | 352 | 1.7 | 1.7 | 0.00 | 0.00 | 0.00 | 24 | 1017.0 |
| 20260507022452 | 81 | 347 | 0.9 | 1.7 | 0.00 | 0.00 | 0.00 | 24 | 1016.7 |
| 20260507021948 | 81 | 51 | 0.0 | 1.7 | 0.00 | 0.00 | 0.00 | 23 | 1016.6 |
| 20260507021443 | 82 | 69 | 0.9 | 1.7 | 0.00 | 0.00 | 0.00 | 23 | 1016.7 |
| 20260507020941 | 82 | 85 | 1.7 | 1.7 | 0.00 | 0.00 | 0.00 | 23 | 1016.6 |
| 20260507020437 | 82 | 108 | 1.7 | 1.7 | 0.00 | 0.00 | 0.00 | 22 | 1016.5 |
| 20260507015934 | 83 | 48 | 0.0 | 1.7 | 0.00 | 0.00 | 0.00 | 22 | 1016.6 |
| 20260507015433 | 83 | 75 | 1.7 | 2.6 | 0.00 | 0.00 | 0.00 | 22 | 1016.7 |
| 20260507014924 | 83 | 81 | 2.6 | 3.5 | 0.00 | 0.00 | 0.00 | 22 | 1016.3 |
| 20260507014421 | 83 | 93 | 1.7 | 4.3 | 0.00 | 0.00 | 0.00 | 22 | 1016.3 |
| 20260507013917 | 83 | 87 | 3.5 | 4.3 | 0.00 | 0.00 | 0.00 | 22 | 1016.3 |
| 20260507013414 | 84 | 86 | 2.6 | 3.5 | 0.00 | 0.00 | 0.00 | 22 | 1016.5 |
| 20260507012912 | 84 | 94 | 3.5 | 5.2 | 0.00 | 0.00 | 0.00 | 22 | 1016.5 |
| 20260507012408 | 84 | 95 | 3.5 | 4.3 | 0.00 | 0.00 | 0.00 | 21 | 1016.6 |
| 20260507011904 | 86 | 89 | 1.7 | 3.5 | 0.00 | 0.00 | 0.00 | 21 | 1016.3 |
| 20260507011401 | 88 | 55 | 1.7 | 2.6 | 0.00 | 0.00 | 0.00 | 20 | 1016.3 |
| 20260507010855 | 87 | 248 | 0.0 | 3.5 | 0.00 | 0.00 | 0.00 | 20 | 1016.3 |
| 20260507010351 | 86 | 103 | 0.0 | 2.6 | 0.00 | 0.00 | 0.00 | 21 | 1016.2 |
| 20260507005849 | 86 | 41 | 0.9 | 4.3 | 0.00 | 0.00 | 0.00 | 21 | 1016.3 |
| 20260507005345 | 87 | 175 | 0.0 | 3.5 | 0.00 | 0.00 | 0.00 | 20 | 1016.1 |
| 20260507004842 | 87 | 42 | 2.6 | 4.3 | 0.00 | 0.00 | 0.00 | 20 | 1016.2 |
| 20260507004339 | 90 | 71 | 1.7 | 2.6 | 0.00 | 0.00 | 0.00 | 19 | 1016.1 |
| 20260507003836 | 88 | 96 | 0.9 | 2.6 | 0.00 | 0.00 | 0.00 | 20 | 1016.2 |
| 20260507003331 | 87 | 83 | 2.6 | 4.3 | 0.00 | 0.00 | 0.00 | 20 | 1016.5 |
| 20260507002826 | 87 | 94 | 1.7 | 7.0 | 0.00 | 0.00 | 0.00 | 20 | 1016.2 |
| 20260507002322 | 87 | 88 | 3.5 | 6.1 | 0.00 | 0.00 | 0.00 | 20 | 1016.1 |
| 20260507001820 | 88 | 80 | 1.7 | 4.3 | 0.00 | 0.00 | 0.00 | 20 | 1016.2 |
| 20260507001317 | 89 | 79 | 0.9 | 1.7 | 0.00 | 0.00 | 0.00 | 19 | 1016.1 |
| 20260507000813 | 87 | 167 | 0.9 | 2.6 | 0.00 | 0.00 | 0.00 | 20 | 1016.3 |
| 20260507000309 | 87 | 79 | 4.3 | 5.2 | 0.00 | 0.00 | 0.00 | 20 | 1016.2 |
| 20260506235806 | 87 | 76 | 2.6 | 3.5 | 0.00 | 0.00 | 0.00 | 20 | 1016.3 |
| 20260506235306 | 87 | 71 | 2.6 | 4.3 | 0.00 | 0.00 | 0.00 | 20 | 1016.2 |
| 20260506234753 | 88 | 91 | 3.5 | 5.2 | 0.00 | 0.00 | 0.00 | 20 | 1016.0 |
| 20260506234251 | 90 | 255 | 0.0 | 1.7 | 0.00 | 0.00 | 0.00 | 19 | 1016.1 |
| 20260506233748 | 88 | 73 | 1.7 | 2.6 | 0.00 | 0.00 | 0.00 | 20 | 1016.5 |
| 20260506233244 | 88 | 71 | 1.7 | 3.5 | 0.00 | 0.00 | 0.00 | 20 | 1016.3 |
| 20260506232741 | 88 | 97 | 1.7 | 3.5 | 0.00 | 0.00 | 0.00 | 20 | 1016.5 |
| 20260506232236 | 87 | 63 | 0.0 | 4.3 | 0.00 | 0.00 | 0.00 | 21 | 1016.5 |
| 20260506231734 | 87 | 98 | 2.6 | 6.1 | 0.00 | 0.00 | 0.00 | 20 | 1016.3 |
| 20260506231232 | 87 | 81 | 1.7 | 7.0 | 0.00 | 0.00 | 0.00 | 21 | 1016.6 |
| 20260506230729 | 86 | 109 | 6.1 | 11.3 | 0.00 | 0.00 | 0.00 | 21 | 1016.3 |
| 20260506230225 | 87 | 185 | 1.7 | 4.3 | 0.00 | 0.00 | 0.00 | 20 | 1016.6 |
| 20260506225722 | 88 | 161 | 1.7 | 5.2 | 0.00 | 0.00 | 0.00 | 20 | 1016.7 |
| 20260506225219 | 88 | 89 | 0.0 | 3.5 | 0.00 | 0.00 | 0.00 | 20 | 1016.8 |
| 20260506224715 | 88 | 215 | 1.7 | 3.5 | 0.00 | 0.00 | 0.00 | 20 | 1016.8 |
| 20260506224212 | 89 | 137 | 1.7 | 5.2 | 0.00 | 0.00 | 0.00 | 19 | 1016.7 |
| 20260506223709 | 88 | 110 | 2.6 | 7.0 | 0.00 | 0.00 | 0.00 | 20 | 1016.9 |
| 20260506223204 | 87 | 78 | 3.5 | 5.2 | 0.00 | 0.00 | 0.00 | 20 | 1017.0 |
| 20260506222701 | 87 | 4 | 1.7 | 4.3 | 0.00 | 0.00 | 0.00 | 20 | 1016.9 |
| 20260506222156 | 87 | 104 | 2.6 | 6.1 | 0.00 | 0.00 | 0.00 | 20 | 1017.2 |
| 20260506221650 | 86 | 92 | 5.2 | 7.8 | 0.00 | 0.00 | 0.00 | 20 | 1017.2 |
| 20260506221147 | 87 | 107 | 5.2 | 6.1 | 0.00 | 0.00 | 0.00 | 20 | 1017.3 |
| 20260506220644 | 87 | 88 | 5.2 | 10.4 | 0.00 | 0.00 | 0.00 | 20 | 1017.4 |
| 20260506220139 | 87 | 247 | 1.7 | 5.2 | 0.00 | 0.00 | 0.00 | 20 | 1017.4 |
| 20260506215636 | 88 | 128 | 1.7 | 4.3 | 0.00 | 0.00 | 0.00 | 20 | 1017.5 |
| 20260506215131 | 87 | 156 | 0.0 | 6.1 | 0.00 | 0.00 | 0.00 | 20 | 1017.5 |
| 20260506214628 | 86 | 95 | 4.3 | 6.1 | 0.00 | 0.00 | 0.00 | 21 | 1017.6 |
| 20260506214126 | 86 | 144 | 3.5 | 7.8 | 0.00 | 0.00 | 0.00 | 20 | 1017.7 |
| 20260506213624 | 86 | 108 | 7.8 | 7.8 | 0.00 | 0.00 | 0.00 | 20 | 1017.6 |
| 20260506213121 | 86 | 91 | 7.8 | 9.6 | 0.00 | 0.00 | 0.00 | 20 | 1017.5 |
| 20260506212618 | 86 | 98 | 3.5 | 5.2 | 0.00 | 0.00 | 0.00 | 20 | 1017.9 |
| 20260506212113 | 86 | 91 | 2.6 | 7.8 | 0.00 | 0.00 | 0.00 | 20 | 1018.0 |
| 20260506211608 | 86 | 86 | 2.6 | 3.5 | 0.00 | 0.00 | 0.00 | 21 | 1017.9 |
| 20260506211106 | 86 | 58 | 2.6 | 4.3 | 0.00 | 0.00 | 0.00 | 21 | 1018.2 |
| 20260506210602 | 86 | 110 | 0.9 | 3.5 | 0.00 | 0.00 | 0.00 | 20 | 1018.2 |
| 20260506210059 | 86 | 214 | 0.9 | 2.6 | 0.00 | 0.00 | 0.00 | 21 | 1018.2 |
| 20260506205556 | 86 | 178 | 2.6 | 4.3 | 0.00 | 0.00 | 0.00 | 20 | 1018.1 |
| 20260506205051 | 84 | 101 | 5.2 | 7.8 | 0.00 | 0.00 | 0.00 | 21 | 1018.2 |
| 20260506204549 | 86 | 96 | 4.3 | 5.2 | 0.00 | 0.00 | 0.00 | 21 | 1018.2 |
| 20260506204046 | 85 | 84 | 1.7 | 6.1 | 0.00 | 0.00 | 0.00 | 21 | 1018.4 |
| 20260506203544 | 85 | 104 | 3.5 | 7.0 | 0.00 | 0.00 | 0.00 | 21 | 1018.3 |
| 20260506203040 | 86 | 69 | 2.6 | 6.1 | 0.00 | 0.00 | 0.00 | 21 | 1018.5 |
| 20260506202538 | 84 | 163 | 4.3 | 7.0 | 0.00 | 0.00 | 0.00 | 21 | 1018.6 |
| 20260506202034 | 84 | 252 | 4.3 | 4.3 | 0.00 | 0.00 | 0.00 | 21 | 1018.5 |
| 20260506201532 | 84 | 20 | 1.7 | 3.5 | 0.00 | 0.00 | 0.00 | 22 | 1018.6 |
| 20260506201028 | 83 | 95 | 7.8 | 10.4 | 0.00 | 0.00 | 0.00 | 22 | 1018.8 |
| 20260506200524 | 84 | 73 | 4.3 | 5.2 | 0.00 | 0.00 | 0.00 | 22 | 1018.8 |
| 20260506200021 | 84 | 76 | 1.7 | 4.3 | 0.00 | 0.00 | 0.00 | 22 | 1018.8 |
| 20260506195518 | 84 | 126 | 3.5 | 7.8 | 0.00 | 0.00 | 0.00 | 22 | 1019.0 |
| 20260506195014 | 83 | 148 | 0.9 | 3.5 | 0.00 | 0.00 | 0.00 | 23 | 1019.1 |
| 20260506194512 | 83 | 113 | 3.5 | 7.0 | 0.00 | 0.00 | 0.00 | 22 | 1019.0 |
| 20260506194008 | 84 | 91 | 4.3 | 5.2 | 0.00 | 0.00 | 0.00 | 22 | 1019.2 |
| 20260506193505 | 82 | 97 | 2.6 | 10.4 | 0.00 | 0.00 | 0.00 | 23 | 1019.1 |
| 20260506192956 | 83 | 213 | 0.0 | 3.5 | 0.00 | 0.00 | 0.00 | 23 | 1019.2 |
| 20260506192454 | 84 | 128 | 5.2 | 5.2 | 0.00 | 0.00 | 0.00 | 22 | 1019.3 |
| 20260506191949 | 84 | 202 | 2.6 | 4.3 | 0.00 | 0.00 | 0.00 | 23 | 1019.2 |
| 20260506191447 | 82 | 163 | 0.9 | 5.2 | 0.00 | 0.00 | 0.00 | 23 | 1019.3 |
| 20260506190943 | 82 | 267 | 1.7 | 2.6 | 0.00 | 0.00 | 0.00 | 24 | 1019.4 |
| 20260506190440 | 81 | 313 | 0.9 | 3.5 | 0.00 | 0.00 | 0.00 | 25 | 1019.4 |
| 20260506185936 | 82 | 104 | 3.5 | 4.3 | 0.00 | 0.00 | 0.00 | 24 | 1019.5 |
| 20260506185434 | 82 | 173 | 3.5 | 4.3 | 0.00 | 0.00 | 0.00 | 25 | 1019.5 |
| 20260506184931 | 81 | 85 | 4.3 | 4.3 | 0.00 | 0.00 | 0.00 | 26 | 1019.5 |
| 20260506184427 | 82 | 302 | 0.0 | 2.6 | 0.00 | 0.00 | 0.00 | 25 | 1019.6 |
| 20260506183925 | 82 | 313 | 2.6 | 4.3 | 0.00 | 0.00 | 0.00 | 26 | 1019.7 |
| 20260506183420 | 80 | 112 | 2.6 | 7.8 | 0.00 | 0.00 | 0.00 | 26 | 1019.7 |
| 20260506182912 | 80 | 63 | 2.6 | 2.6 | 0.00 | 0.00 | 0.00 | 27 | 1019.8 |
| 20260506182409 | 79 | 141 | 1.7 | 3.5 | 0.00 | 0.00 | 0.00 | 28 | 1019.9 |
| 20260506181907 | 79 | 108 | 2.6 | 7.0 | 0.00 | 0.00 | 0.00 | 28 | 1019.7 |
| 20260506181404 | 81 | 96 | 0.9 | 4.3 | 0.00 | 0.00 | 0.00 | 27 | 1019.9 |
| 20260506180901 | 80 | 134 | 1.7 | 3.5 | 0.00 | 0.00 | 0.00 | 28 | 1019.8 |
| 20260506180357 | 77 | 102 | 3.5 | 7.8 | 0.00 | 0.00 | 0.00 | 29 | 1019.9 |
| 20260506175854 | 79 | 81 | 1.7 | 3.5 | 0.00 | 0.00 | 0.00 | 28 | 1019.8 |
| 20260506175350 | 80 | 82 | 1.7 | 3.5 | 0.00 | 0.00 | 0.00 | 28 | 1019.9 |
| 20260506174848 | 78 | 166 | 0.9 | 4.3 | 0.00 | 0.00 | 0.00 | 29 | 1020.0 |
| 20260506174345 | 77 | 35 | 0.9 | 4.3 | 0.00 | 0.00 | 0.00 | 30 | 1019.9 |
| 20260506173843 | 77 | 79 | 3.5 | 7.0 | 0.00 | 0.00 | 0.00 | 30 | 1019.9 |
| 20260506173339 | 78 | 58 | 0.0 | 2.6 | 0.00 | 0.00 | 0.00 | 29 | 1019.9 |
| 20260506172836 | 77 | 78 | 1.7 | 7.8 | 0.00 | 0.00 | 0.00 | 30 | 1020.2 |
| 20260506172333 | 76 | 107 | 2.6 | 5.2 | 0.00 | 0.00 | 0.00 | 30 | 1019.9 |
| 20260506171830 | 76 | 124 | 1.7 | 2.6 | 0.00 | 0.00 | 0.00 | 30 | 1020.0 |
| 20260506171327 | 76 | 112 | 2.6 | 7.0 | 0.00 | 0.00 | 0.00 | 30 | 1020.1 |
| 20260506170825 | 75 | 62 | 0.9 | 4.3 | 0.00 | 0.00 | 0.00 | 31 | 1020.0 |
| 20260506170320 | 76 | 108 | 2.6 | 4.3 | 0.00 | 0.00 | 0.00 | 30 | 1020.0 |
| 20260506165819 | 75 | 350 | 0.9 | 3.5 | 0.00 | 0.00 | 0.00 | 31 | 1019.8 |
| 20260506165316 | 75 | 95 | 3.5 | 3.5 | 0.00 | 0.00 | 0.00 | 31 | 1020.1 |
| 20260506164813 | 77 | 69 | 2.6 | 3.5 | 0.00 | 0.00 | 0.00 | 30 | 1020.0 |
| 20260506164310 | 76 | 162 | 1.7 | 3.5 | 0.00 | 0.00 | 0.00 | 31 | 1019.9 |
| 20260506163807 | 74 | 249 | 2.6 | 2.6 | 0.00 | 0.00 | 0.00 | 32 | 1019.9 |
| 20260506163301 | 74 | 145 | 0.9 | 3.5 | 0.00 | 0.00 | 0.00 | 33 | 1019.9 |
| 20260506162757 | 73 | 20 | 2.6 | 3.5 | 0.00 | 0.00 | 0.00 | 34 | 1019.8 |
| 20260506162256 | 73 | 258 | 0.0 | 2.6 | 0.00 | 0.00 | 0.00 | 34 | 1019.8 |
| 20260506161752 | 73 | 61 | 0.0 | 1.7 | 0.00 | 0.00 | 0.00 | 35 | 1019.8 |
| 20260506161250 | 73 | 89 | 0.0 | 2.6 | 0.00 | 0.00 | 0.00 | 35 | 1019.8 |
| 20260506160747 | 71 | 151 | 2.6 | 2.6 | 0.00 | 0.00 | 0.00 | 36 | 1019.7 |
| 20260506160244 | 72 | 117 | 3.5 | 3.5 | 0.00 | 0.00 | 0.00 | 35 | 1019.8 |
| 20260506155743 | 72 | 89 | 0.0 | 1.7 | 0.00 | 0.00 | 0.00 | 35 | 1019.8 |
| 20260506155239 | 73 | 109 | 1.7 | 2.6 | 0.00 | 0.00 | 0.00 | 35 | 1019.9 |
| 20260506153347 | 69 | 191 | 0.9 | 2.6 | 0.00 | 0.00 | 0.00 | 39 | 1019.7 |
| 20260506152843 | 68 | 322 | 0.0 | 2.6 | 0.00 | 0.00 | 0.00 | 40 | 1019.7 |
| 20260506152340 | 70 | 102 | 0.0 | 2.6 | 0.00 | 0.00 | 0.00 | 38 | 1019.6 |
| 20260506151839 | 71 | 269 | 0.0 | 1.7 | 0.00 | 0.00 | 0.00 | 38 | 1019.7 |
| 20260506151336 | 71 | 58 | 1.7 | 1.7 | 0.00 | 0.00 | 0.00 | 37 | 1019.7 |
| 20260506150833 | 69 | 25 | 0.0 | 0.9 | 0.00 | 0.00 | 0.00 | 39 | 1019.6 |
| 20260506150330 | 68 | 89 | 0.0 | 0.9 | 0.00 | 0.00 | 0.00 | 40 | 1019.8 |
| 20260506145826 | 68 | 86 | 0.9 | 2.6 | 0.00 | 0.00 | 0.00 | 40 | 1019.9 |
| 20260506145322 | 68 | 95 | 0.9 | 2.6 | 0.00 | 0.00 | 0.00 | 41 | 1019.8 |
| 20260506144821 | 67 | 81 | 1.7 | 2.6 | 0.00 | 0.00 | 0.00 | 41 | 1019.7 |
| 20260506144317 | 65 | 91 | 0.0 | 1.7 | 0.00 | 0.00 | 0.00 | 45 | 1019.8 |
| 20260506143816 | 66 | 22 | 0.0 | 1.7 | 0.00 | 0.00 | 0.00 | 43 | 1019.7 |
| 20260506143312 | 65 | 62 | 0.9 | 1.7 | 0.00 | 0.00 | 0.00 | 45 | 1019.7 |
| 20260506142810 | 64 | 27 | 1.7 | 1.7 | 0.00 | 0.00 | 0.00 | 46 | 1019.7 |
| 20260506142307 | 63 | 13 | 0.9 | 1.7 | 0.00 | 0.00 | 0.00 | 48 | 1019.6 |
| 20260506141806 | 64 | 21 | 0.9 | 1.7 | 0.00 | 0.00 | 0.00 | 46 | 1019.5 |
| 20260506141304 | 64 | 39 | 0.0 | 1.7 | 0.00 | 0.00 | 0.00 | 46 | 1019.7 |
| 20260506140801 | 64 | 60 | 0.9 | 1.7 | 0.00 | 0.00 | 0.00 | 46 | 1019.4 |
| 20260506140257 | 63 | 96 | 1.7 | 1.7 | 0.00 | 0.00 | 0.00 | 48 | 1019.4 |
| 20260506135755 | 59 | 34 | 0.0 | 1.7 | 0.00 | 0.00 | 0.00 | 52 | 1019.2 |
| 20260506135251 | 59 | 28 | 1.7 | 3.5 | 0.00 | 0.00 | 0.00 | 53 | 1019.3 |
| 20260506134748 | 58 | 20 | 0.9 | 1.7 | 0.00 | 0.00 | 0.00 | 54 | 1019.3 |
| 20260506134244 | 56 | 114 | 0.0 | 1.7 | 0.00 | 0.00 | 0.00 | 56 | 1019.3 |
| 20260506133742 | 56 | 151 | 0.9 | 1.7 | 0.00 | 0.00 | 0.00 | 57 | 1019.3 |
| 20260506133238 | 54 | 239 | 1.7 | 1.7 | 0.00 | 0.00 | 0.00 | 58 | 1019.1 |
| 20260506132735 | 53 | 283 | 0.0 | 1.7 | 0.00 | 0.00 | 0.00 | 60 | 1019.1 |
| 20260506132233 | 52 | 242 | 0.9 | 1.7 | 0.00 | 0.00 | 0.00 | 62 | 1019.1 |
| 20260506131731 | 52 | 181 | 0.9 | 1.7 | 0.00 | 0.00 | 0.00 | 62 | 1018.9 |
| 20260506131226 | 51 | 272 | 0.9 | 1.7 | 0.00 | 0.00 | 0.00 | 63 | 1018.9 |
| 20260506130723 | 51 | 165 | 0.0 | 1.7 | 0.00 | 0.00 | 0.00 | 62 | 1018.8 |
| 20260506130220 | 52 | 194 | 1.7 | 1.7 | 0.00 | 0.00 | 0.00 | 63 | 1018.8 |
| 20260506125718 | 51 | 151 | 0.0 | 1.7 | 0.00 | 0.00 | 0.00 | 62 | 1018.7 |
| 20260506125216 | 52 | 148 | 0.0 | 1.7 | 0.00 | 0.00 | 0.00 | 62 | 1018.8 |
| 20260506124714 | 51 | 61 | 0.9 | 1.7 | 0.00 | 0.00 | 0.00 | 63 | 1018.6 |
| 20260506124211 | 52 | 91 | 1.7 | 1.7 | 0.00 | 0.00 | 0.00 | 62 | 1018.3 |
| 20260506123708 | 53 | 256 | 0.0 | 1.7 | 0.00 | 0.00 | 0.00 | 61 | 1018.5 |
| 20260506123207 | 53 | 247 | 0.9 | 1.7 | 0.00 | 0.00 | 0.00 | 61 | 1018.5 |
| 20260506122703 | 53 | 262 | 0.9 | 1.7 | 0.00 | 0.00 | 0.00 | 60 | 1018.3 |
| 20260506122201 | 54 | 192 | 0.9 | 2.6 | 0.00 | 0.00 | 0.00 | 59 | 1018.6 |
| 20260506121659 | 54 | 215 | 0.9 | 1.7 | 0.00 | 0.00 | 0.00 | 59 | 1018.3 |
| 20260506121155 | 54 | 239 | 1.7 | 3.5 | 0.00 | 0.00 | 0.00 | 59 | 1018.4 |
| 20260506120653 | 52 | 178 | 0.0 | 1.7 | 0.00 | 0.00 | 0.00 | 62 | 1018.3 |
| 20260506120150 | 51 | 195 | 0.9 | 1.7 | 0.00 | 0.00 | 0.00 | 62 | 1018.3 |
| 20260506115648 | 52 | 184 | 1.7 | 1.7 | 0.00 | 0.00 | 0.00 | 62 | 1018.1 |
| 20260506115146 | 51 | 162 | 0.9 | 1.7 | 0.00 | 0.00 | 0.00 | 64 | 1018.3 |
| 20260506114643 | 52 | 89 | 0.0 | 1.7 | 0.00 | 0.00 | 0.00 | 63 | 1018.0 |
| 20260506114141 | 53 | 60 | 0.0 | 0.9 | 0.00 | 0.00 | 0.00 | 62 | 1018.1 |
| 20260506113639 | 52 | 22 | 0.9 | 1.7 | 0.00 | 0.00 | 0.00 | 63 | 1018.1 |
| 20260506113136 | 53 | 116 | 0.9 | 1.7 | 0.00 | 0.00 | 0.00 | 61 | 1018.2 |
| 20260506112632 | 54 | 320 | 0.0 | 1.7 | 0.00 | 0.00 | 0.00 | 60 | 1018.1 |
| 20260506112130 | 53 | 191 | 0.0 | 1.7 | 0.00 | 0.00 | 0.00 | 62 | 1018.0 |
| 20260506111627 | 53 | 240 | 0.0 | 1.7 | 0.00 | 0.00 | 0.00 | 62 | 1018.2 |
| 20260506111125 | 53 | 198 | 1.7 | 2.6 | 0.00 | 0.00 | 0.00 | 62 | 1018.1 |
| 20260506110622 | 53 | 211 | 1.7 | 1.7 | 0.00 | 0.00 | 0.00 | 62 | 1018.2 |
| 20260506110120 | 53 | 260 | 0.9 | 1.7 | 0.00 | 0.00 | 0.00 | 62 | 1018.0 |
| 20260506105616 | 52 | 231 | 1.7 | 1.7 | 0.00 | 0.00 | 0.00 | 62 | 1017.9 |
| 20260506105113 | 52 | 255 | 0.9 | 1.7 | 0.00 | 0.00 | 0.00 | 62 | 1018.2 |
| 20260506104611 | 52 | 208 | 0.9 | 1.7 | 0.00 | 0.00 | 0.00 | 62 | 1018.1 |
| 20260506104108 | 54 | 236 | 0.9 | 1.7 | 0.00 | 0.00 | 0.00 | 61 | 1018.1 |
| 20260506103606 | 53 | 172 | 0.0 | 1.7 | 0.00 | 0.00 | 0.00 | 62 | 1018.0 |
| 20260506103102 | 53 | 265 | 0.9 | 1.7 | 0.00 | 0.00 | 0.00 | 62 | 1018.0 |
| 20260506102601 | 52 | 228 | 0.0 | 2.6 | 0.00 | 0.00 | 0.00 | 62 | 1017.9 |
| 20260506102058 | 52 | 250 | 0.9 | 1.7 | 0.00 | 0.00 | 0.00 | 61 | 1017.9 |
| 20260506101554 | 53 | 171 | 0.0 | 1.7 | 0.00 | 0.00 | 0.00 | 60 | 1018.0 |
| 20260506101051 | 53 | 338 | 0.0 | 2.6 | 0.00 | 0.00 | 0.00 | 60 | 1018.0 |
| 20260506100550 | 53 | 86 | 0.9 | 1.7 | 0.00 | 0.00 | 0.00 | 59 | 1017.8 |
| 20260506100047 | 54 | 174 | 0.0 | 1.7 | 0.00 | 0.00 | 0.00 | 58 | 1017.9 |
| 20260506095546 | 53 | 240 | 1.7 | 2.6 | 0.00 | 0.00 | 0.00 | 59 | 1018.0 |
| 20260506095042 | 53 | 296 | 0.0 | 2.6 | 0.00 | 0.00 | 0.00 | 60 | 1017.9 |
| 20260506094540 | 53 | 172 | 0.9 | 1.7 | 0.00 | 0.00 | 0.00 | 61 | 1018.0 |
| 20260506094038 | 53 | 277 | 1.7 | 2.6 | 0.00 | 0.00 | 0.00 | 61 | 1017.9 |
| 20260506093536 | 54 | 189 | 0.9 | 1.7 | 0.00 | 0.00 | 0.00 | 61 | 1018.0 |
| 20260506093033 | 54 | 176 | 0.9 | 0.9 | 0.00 | 0.00 | 0.00 | 60 | 1018.1 |
| 20260506092530 | 54 | 324 | 0.0 | 1.7 | 0.00 | 0.00 | 0.00 | 60 | 1018.0 |
| 20260506092027 | 54 | 320 | 0.0 | 1.7 | 0.00 | 0.00 | 0.00 | 59 | 1018.0 |
| 20260506091526 | 55 | 47 | 0.9 | 1.7 | 0.00 | 0.00 | 0.00 | 58 | 1018.0 |
| 20260506091022 | 55 | 72 | 1.7 | 1.7 | 0.00 | 0.00 | 0.00 | 57 | 1017.9 |
| 20260506090520 | 56 | 201 | 0.0 | 3.5 | 0.00 | 0.00 | 0.00 | 56 | 1017.8 |
| 20260506090016 | 55 | 112 | 0.9 | 1.7 | 0.00 | 0.00 | 0.00 | 56 | 1017.9 |
| 20260506085513 | 56 | 231 | 1.7 | 3.5 | 0.00 | 0.00 | 0.00 | 56 | 1017.9 |
| 20260506085010 | 56 | 76 | 0.0 | 1.7 | 0.00 | 0.00 | 0.00 | 58 | 1017.9 |
| 20260506084507 | 56 | 89 | 0.0 | 1.7 | 0.00 | 0.00 | 0.00 | 56 | 1018.2 |
| 20260506084003 | 56 | 206 | 1.7 | 1.7 | 0.00 | 0.00 | 0.00 | 57 | 1018.2 |
| 20260506083500 | 56 | 254 | 1.7 | 2.6 | 0.00 | 0.00 | 0.00 | 56 | 1018.1 |
| 20260506082957 | 57 | 216 | 0.0 | 3.5 | 0.00 | 0.00 | 0.00 | 55 | 1018.1 |
| 20260506082454 | 56 | 118 | 0.9 | 2.6 | 0.00 | 0.00 | 0.00 | 57 | 1018.3 |
| 20260506081950 | 56 | 1 | 0.0 | 1.7 | 0.00 | 0.00 | 0.00 | 57 | 1018.3 |
| 20260506081448 | 57 | 246 | 1.7 | 2.6 | 0.00 | 0.00 | 0.00 | 56 | 1018.3 |
| 20260506080945 | 57 | 353 | 1.7 | 5.2 | 0.00 | 0.00 | 0.00 | 56 | 1018.3 |
| 20260506080442 | 57 | 106 | 1.7 | 2.6 | 0.00 | 0.00 | 0.00 | 55 | 1018.3 |
| 20260506073426 | 59 | 178 | 1.7 | 1.7 | 0.00 | 0.00 | 0.00 | 53 | 1018.5 |
| 20260506072923 | 59 | 269 | 0.0 | 1.7 | 0.00 | 0.00 | 0.00 | 52 | 1018.4 |
| 20260506072420 | 59 | 116 | 0.0 | 1.7 | 0.00 | 0.00 | 0.00 | 52 | 1018.5 |
| 20260506071917 | 60 | 235 | 0.9 | 2.6 | 0.00 | 0.00 | 0.00 | 51 | 1018.5 |
| 20260506071416 | 60 | 294 | 1.7 | 1.7 | 0.00 | 0.00 | 0.00 | 51 | 1018.7 |
| 20260506070912 | 60 | 202 | 1.7 | 2.6 | 0.00 | 0.00 | 0.00 | 52 | 1018.4 |
| 20260506070409 | 59 | 162 | 0.0 | 1.7 | 0.00 | 0.00 | 0.00 | 52 | 1018.7 |
| 20260506062347 | 63 | 330 | 2.6 | 9.6 | 0.00 | 0.00 | 0.00 | 48 | 1018.0 |
| 20260506061843 | 63 | 269 | 3.5 | 5.2 | 0.00 | 0.00 | 0.00 | 48 | 1017.9 |
| 20260506061339 | 63 | 344 | 1.7 | 7.0 | 0.00 | 0.00 | 0.00 | 48 | 1018.1 |
| 20260506060838 | 63 | 257 | 4.3 | 5.2 | 0.00 | 0.00 | 0.00 | 47 | 1018.0 |
| 20260506060335 | 63 | 249 | 4.3 | 6.1 | 0.00 | 0.00 | 0.00 | 47 | 1018.0 |
| 20260506051307 | 62 | 286 | 2.6 | 8.7 | 0.00 | 0.00 | 0.00 | 47 | 1018.1 |
| 20260506050805 | 64 | 247 | 6.1 | 11.3 | 0.00 | 0.00 | 0.00 | 45 | 1017.7 |
| 20260506050302 | 63 | 240 | 6.1 | 6.1 | 0.00 | 0.00 | 0.00 | 46 | 1017.9 |
| 20260506044752 | 63 | 112 | 0.0 | 2.6 | 0.00 | 0.00 | 0.00 | 45 | 1017.6 |
| 20260506044250 | 64 | 133 | 0.9 | 2.6 | 0.00 | 0.00 | 0.00 | 45 | 1017.7 |
| 20260506043747 | 63 | 242 | 1.7 | 5.2 | 0.00 | 0.00 | 0.00 | 45 | 1017.4 |
| 20260506043244 | 64 | 128 | 0.0 | 3.5 | 0.00 | 0.00 | 0.00 | 45 | 1017.2 |
| 20260506042743 | 64 | 260 | 1.7 | 5.2 | 0.00 | 0.00 | 0.00 | 44 | 1017.4 |
| 20260506042242 | 65 | 252 | 2.6 | 6.1 | 0.00 | 0.00 | 0.00 | 43 | 1017.3 |
| 20260506041740 | 64 | 288 | 1.7 | 7.8 | 0.00 | 0.00 | 0.00 | 44 | 1017.2 |
| 20260506041236 | 64 | 253 | 2.6 | 3.5 | 0.00 | 0.00 | 0.00 | 44 | 1017.2 |
| 20260506040734 | 64 | 266 | 6.1 | 7.8 | 0.00 | 0.00 | 0.00 | 44 | 1017.0 |
| 20260506040231 | 65 | 268 | 3.5 | 6.1 | 0.00 | 0.00 | 0.00 | 43 | 1016.9 |
| 20260506035727 | 64 | 235 | 6.1 | 9.6 | 0.00 | 0.00 | 0.00 | 44 | 1016.9 |
| 20260506035224 | 65 | 248 | 1.7 | 7.0 | 0.00 | 0.00 | 0.00 | 43 | 1016.7 |
| 20260506034721 | 65 | 245 | 5.2 | 7.0 | 0.00 | 0.00 | 0.00 | 43 | 1016.7 |
| 20260506034218 | 65 | 231 | 2.6 | 7.0 | 0.00 | 0.00 | 0.00 | 43 | 1016.7 |
| 20260506033716 | 65 | 273 | 4.3 | 8.7 | 0.00 | 0.00 | 0.00 | 43 | 1016.3 |
| 20260506033212 | 65 | 256 | 4.3 | 9.6 | 0.00 | 0.00 | 0.00 | 43 | 1016.3 |
| 20260506032709 | 65 | 235 | 3.5 | 7.0 | 0.00 | 0.00 | 0.00 | 43 | 1016.1 |
| 20260506032206 | 65 | 232 | 4.3 | 12.2 | 0.00 | 0.00 | 0.00 | 43 | 1016.5 |
| 20260506031703 | 65 | 279 | 5.2 | 13.9 | 0.00 | 0.00 | 0.00 | 43 | 1016.2 |
| 20260506031200 | 64 | 244 | 2.6 | 7.8 | 0.00 | 0.00 | 0.00 | 44 | 1016.2 |